Вернуться в каталог

DELTA 1 DEB

АктивенLEO
NORAD 29184·DEBRIS·🇺🇸 United States

Запущен Jan 11, 1968 с Vandenberg Space Force Base

Loading…

Ближайшие Пролёты (ближайшие 24 часа)

TLE

УстаревающийSource: Space-Track

Эпоха: Sep 11, 2026, 02:14 UTC

1 29184U 68002H   26254.09336370  .00000274  00000-0  77930-3 0  9992
2 29184 105.8318 350.0571 0258074  77.1949 285.7843 13.17052125569864

Отслеживайте DELTA 1 DEB в реальном времени с AllMySat

Download on the App Store